User: anonymous   Login
Location: Unspecified
(0.0000°N, 0.0000°E)
Time: 13:17:26
(UTC+00:00)
Language:

Explorer 22 - Orbit

View from above orbital plane
View from above orbital plane
View from above satellite
View from above satellite

Ground track
Ground track

The orbit data is extracted from the following two-line orbital elements,

1 00899U 64064A   21015.60714980  .00000087  00000-0  71328-4 0  9990
2 00899  79.6914 130.2596 0120621 248.1375 110.6912 13.82159429831569
Epoch (UTC): 15 January 2021 14:34:17
Eccentricity: 0.0120621
inclination: 79.6914°
perigee height: 868 km
apogee height: 1045 km
right ascension of ascending node: 130.2596°
argument of perigee: 248.1375°
revolutions per day: 13.82159429
mean anomaly at epoch: 110.6912°
orbit number at epoch: 83156

The dashed part of the orbit path shows where the satellite is in the earth's shadow,  

DLR